Starlink 30169

operational
NORAD ID: 57499 Int'l Des: 2023-113 Owner: SPXS Country: US Constellation: starlink
LEOCIRCULAR

About Starlink 30169

Description loading...

Live Position

Loading 3D Globe...

Upcoming Passes

Altitude History

Altitude vs Time

uPlot chart will show altitude changes over time

Two-Line Element Set

1 57499U 23113E 25308.76280012 .00000441 00000-0 47736-4 0 9998
2 57499 43.0065 323.8071 0001269 268.2117 91.8580 15.02539558124857
Epoch: Nov 4, 2025 • Age: 7 hours

Current Status

Altitude 561.3 km
Velocity 7.58 km/s
Sub-Earth Point -13.65°S, 89°E
Launch Date Aug 7, 2023
Age 2.2 years
Type internet

Technical Details

Classification Payload
Mass 730.00 kg
Dry Mass 700.00 kg
Total Mass 730.00 kg
Length 0.30 m
Diameter 4.10 m
Span 29.00 m
Shape Box + pan
Manufacturer SPXS
Bus Type Starlink V2M
Phase Status In Orbit
Owner/State SPXS/US

Large Constellations

Loading constellations...